Location: Cardiff
(53.7833°N, 113.6000°W)
Time: 16:37:17
(UTC+00:00)

RS-15 - Pass Details

Date: 03 December 2023
Orbit: 1893 x 2151 km, 64.8° (Epoch: 27 February)

Event Time Altitude Azimuth Distance (km) Brightness Sun altitude
Exits shadow 14:26:39 - 313° (NW) 4,654 9.4 -9.0°
Reaches altitude 10° 14:27:28 10° 311° (NW) 4,445 9.3 -8.9°
Maximum altitude 14:36:46 31° 255° (WSW) 2,986 8.6 -7.7°
Drops below altitude 10° 14:45:47 10° 199° (SSW) 4,291 10.0 -6.5°
Sets 14:49:30 0° 189° (S) 5,270 10.6 -6.0°
